Weather in Luzhbelyak

Russia / Mari El Republic     57°00′47″N   48°13′48″E
temp.,
°C
wind,
m/s
gust,
m/s
humid.,
%
clouds,
%
prec.,
mm/h
press.,
hPa
HPBL,
m
25 february, thu
thu2500:00−24ssw229589 0.0 103420
03:00−25s349783 0.0 103244
06:00−23s4996100 0.0 1029211
09:00−20sse61094100 0.0 1026290
12:00−17sse71295100 0.4 1022431
15:00−16sse71195100 1.4 1020586
18:00−16sse61195100 1.1 1018558
21:00−17se5109498 1.3 1017393
26 february, fri
fri2600:00−17se599597 0.1 1017373
03:00−18se489596 0.1 1018295
06:00−20se489786 0.1 1016187
09:00−18se589490 0.1 1016324
12:00−15se5892100 0.0 1014425
15:00−14se71192100 0.1 1012489
18:00−15se81493100 0.1 1007515
21:00−13se91694100 2.5 1003544
27 february, sat
sat2700:00−12se71494100 5.1 1000549
03:00−12se61194100 6.0 999380
06:00−12ese5994100 0.7 997311
09:00−12e6994100 0.9 998326
12:00−10e699299 0.3 998397
15:00−10ene6991100 0.4 1000440
18:00−12ne51093100 0.1 1002404
21:00−14ne499492 0.2 1004225
28 february, sun
sun2800:00−14nne599499 0.2 1005316
03:00−16nne599497 0.3 1007263
06:00−16nne599499 0.1 1008325
09:00−18nne589499 0.1 1010278
12:00−16n589286 0.0 1011340
15:00−15n589190 0.0 1012441
18:00−18n499695 0.0 1015165
21:00−21n469859 0.0 101786
1 march, mon
mon100:00−22n44980 0.0 101968
03:00−23n44980 0.0 102079
06:00−23n34980 0.0 102255
09:00−20n34960 0.0 1023129
12:00−15wnw238828 0.0 1023242
15:00−12wsw359026 0.0 1022318
18:00−14sw489665 0.0 1020150
21:00−12sw5119782 0.0 1018284